Regional Weather Roundup
Issued by NWS

Home | Current Version | Previous Version | Graphics & Text | Print | Product List | Glossary On
Versions: 1 2 3 4 5 6 7 8 9 10 11 12 13 14 15 16 17 18 19 20 21 22 23 24 25 26 27
000
ASUS45 KTFX 141410
RWRMT
MONTANA REGIONAL WEATHER ROUNDUP
NATIONAL WEATHER SERVICE GREAT FALLS MT
700 AM MST THU DEC 14 2017

NOTE: "FAIR" INDICATES FEW OR NO CLOUDS BELOW 12000 FEET WITH NO
SIGNIFICANT WEATHER AND/OR OBSTRUCTIONS TO VISIBILITY.

MTZ001>007-043-141500-
WEST OF THE DIVIDE

CITY           SKY/WX    TMP DP  RH WIND       PRES   REMARKS
KALISPELL      CLOUDY    25  23  92 CALM      30.53S
MISSOULA       CLOUDY    27  24  89 NW3       30.52R
BUTTE          CLOUDY    23  20  88 S7        30.43R WCI  15
MULLAN PASS    FAIR      24  21  88 NW3       30.38R
ANACONDA         N/A     19  14  79 W6        30.44F WCI  11
DEER LODGE       N/A     25  25 100 CALM      30.47S
EUREKA           N/A     23  19  86 MISG      30.56S
HAMILTON         N/A     23  21  93 CALM      30.49S
LIBBY            N/A     27  25  93 CALM      30.53F
PLAINS           N/A     26  21  81 CALM      30.53R
RONAN            N/A     27  24  88 SE2       30.52R
$$

MTZ008-052>055-141500-
SOUTHWEST MONTANA

CITY           SKY/WX    TMP DP  RH WIND       PRES   REMARKS
BOZEMAN        FOG       24  21  88 W3        30.45S VSB 1/4
DILLON         FAIR      17  13  84 CALM      30.43R
W YELLOWSTONE  FAIR      -8 -13  77 CALM      30.39R
ENNIS          CLOUDY    10   9  92 CALM      30.47R
THREE FORKS      N/A     24  22  92 CALM      30.39S
TWIN BRIDGES     N/A     15   8  73 CALM      30.37R
$$

MTZ009-010-012-014-046-048-049-054-141500-
EAST SLOPES AND CENTRAL MONTANA

CITY           SKY/WX    TMP DP  RH WIND       PRES   REMARKS
CUT BANK       FAIR      23  18  81 W7        30.32S WCI  15
GREAT FALLS    FAIR      26  21  81 SW14      30.35F WCI  14
MALMSTROM AFB  FAIR      27  23  86 SW13      30.36F WCI  16
HELENA         FOG       16  15  96 W5        30.45S VSB 1/4
CHOTEAU          N/A     25  18  74 SW8       30.35F WCI  16
$$

MTZ011-013-016-021-045-047-050-051-141500-
NORTH CENTRAL MONTANA

CITY           SKY/WX    TMP DP  RH WIND       PRES   REMARKS
HAVRE          FAIR      22  20  92 SW10      30.34S WCI  11
LEWISTOWN      CLOUDY    29  22  75 W9        30.33R WCI  20
N BAR RANCH    FAIR      32  21  64 NW30G45   30.25F WCI  18
CHINOOK          N/A     25  21  86 W8        30.34R WCI  16
$$

MTZ017>020-022>027-061-062-141500-
NORTHEAST MONTANA

CITY           SKY/WX    TMP DP  RH WIND       PRES   REMARKS
GLASGOW        CLOUDY    33  26  75 NW14      30.26R WCI  23
GLENDIVE       CLOUDY    32  28  85 NW18G30   30.20R WCI  20
JORDAN           N/A     33  24  69 NW13      30.27S WCI  24
SIDNEY         LGT RAIN  34  28  79 N20G25    30.20R WCI  23
WOLF POINT     CLOUDY    36  28  73 NW12      30.26R WCI  28
MALTA          CLOUDY    30  23  74 W10       30.32R WCI  21
PLENTYWOOD       N/A     30  27  86 NW13G20   30.18R WCI  20
POPLAR           N/A     34  27  75 N13       30.24R WCI  25
SCOBEY           N/A     31  22  69 NW14      30.18R WCI  21
$$

MTZ028>42-056>058-141500-
SOUTHCENTRAL AND SOUTHEAST MONTANA

CITY           SKY/WX    TMP DP  RH WIND       PRES   REMARKS
BAKER          CLOUDY    30  28  92 NW21G28   30.17R WCI  17
BILLINGS       FAIR      28  21  75 W10       30.32R WCI  19
LIVINGSTON     FAIR      27  23  85 W14       30.38S WCI  16
MILES CITY     CLOUDY    34  24  67 NW17      30.25S WCI  23
BIG TIMBER     CLEAR     30  23  74 W25       30.35S WCI  16
EKALAKA          N/A     28  23  81 W15       30.12R WCI  16
FORSYTH          N/A     34  23  64 SW9       30.29R WCI  26
LAUREL           N/A     30  21  69 NW9       30.34R WCI  22
ROUNDUP          N/A     30  17  58 W7        30.19S WCI  23
$$

REGIONAL REPORTS...DAKOTAS

CITY           SKY/WX    TMP DP  RH WIND       PRES   REMARKS
WILLISTON      CLOUDY    33  25  72 N12       30.19R WCI  24
MINOT          CLOUDY    32  24  72 NW13      30.07R WCI  22
DICKINSON      LGT SNOW  31  28  89 NW18      30.08R FOG     WCI  19
BEACH          LGT SNOW  30  30 100 NW20G26   30.18R WCI  18
CROSBY         CLOUDY    28  25  86 NW14      30.16S WCI  17
TIOGA          CLOUDY    28  28 100 N21G29    30.14R WCI  15
WATFORD CITY   CLOUDY    32  27  80 N20G26    30.15R WCI  20
BISMARCK       CLOUDY    34  30  85 N17G23    30.04R WCI  23
GRAND FORKS    CLOUDY    22  19  89 NW8       30.03R WCI  12
FARGO          CLOUDY    20  17  88 W5        30.02R
BUFFALO SD       N/A     32  27  81 NW29G38   30.06  WCI  18
RAPID CITY     CLOUDY    34  24  67 NW26G38   30.12R WCI  21
$$

REGIONAL REPORTS...WYOMING/IDAHO/WASHINGTON

CITY           SKY/WX    TMP DP  RH WIND       PRES   REMARKS
GILLETTE         N/A     31  21  66 MISG      30.22R
SHERIDAN       CLOUDY    34  22  61 NW21G30   30.29R WCI  22
BUFFALO WY     CLOUDY    32  17  54 N31G45    30.23R WCI  17
CODY           FAIR      21  15  78 W3        30.30S
YELLOWSTONE LA   N/A      1  -3  83 NW3       30.37R
IDAHO FALLS    FOG       21  21 100 SW5       30.47R VSB 1/2
SALMON         CLOUDY    22  20  92 CALM      30.51S
BOISE          LGT SNOW  25  22  88 S5        30.54R FOG
SPOKANE        CLOUDY    30  27  88 NE7       30.51F WCI  23
$$

REGIONAL REPORTS...ALBERTA

CITY           SKY/WX    TMP DP  RH WIND       PRES   REMARKS
EDMONTON       CLEAR     23  19  86 SW8       30.20F WCI  14
CALGARY        PTCLDY    25  18  74 SW5       30.24F
LETHBRIDGE     PTCLDY    23  18  80 SW9       30.31F WCI  13
MEDICINE HAT   PTCLDY    18  16  93 SW7       30.32S WCI   8
$$

REGIONAL REPORTS...SASKATCHEWAN

CITY           SKY/WX    TMP DP  RH WIND       PRES   REMARKS
SWIFT CURRENT  PTCLDY    25  23  93 NW12      30.20F WCI  14
REGINA         MOCLDY    28  25  86 NW9       30.15F WCI  20
SASKATOON      CLOUDY    28  25  86 W14       30.18S WCI  17
$$




USA.gov is the U.S. government's official web portal to all federal, state and local government web resources and services.